www.pogodaiklimat.ru

Погода и климат >> Архив погоды >> Испания >> Madrid


АРХИВ ПОГОДЫ в Madrid

Время (UTC), дата Ветер
(напр.,м/с)
 
Видим.   Явления Облачность Т
(С)
Тd
(С)
f
(%)
Тe
(С)
Тes
(С)
Комфортность P
(гПа)
Po
(гПа)
Тmin
(С)
Tmax
(С)
R
(мм)
S
(см)
07 20.02 СВ 2 10 км ясно +0.4 -0.5 94 -3 -3 прохладно 1029.2 957.8
08 20.02 С 2 20 км ясно +1.8 +0.6 92 -1 0 прохладно 1029.3 958.2
09 20.02 ЮВ 1 30 км ясно +5.8 +2.3 78 +5 +8 по сезону 1028.5 958.5
10 20.02 СВ 2 26 км ясно +8.9 +3.8 70 +7 +13 по сезону 1027.8 958.5
11 20.02 В 1 24 км ясно +10.4 +2.5 58 +10 +20 опасность
простуды
1026.9 958.0
12 20.02 В 2 30 км ясно +11.8 +0.5 46 +11 +20 по сезону 1025.9 957.4
13 20.02 ЮВ 2 22 км ясно +13.1 +0.1 41 +13 +22 тепло 1024.6 956.5
14 20.02 СЗ 1 30 км ясно +13.6 +0.5 41 +14 +22 тепло 1023.6 955.7
15 20.02 С 2 30 км ясно +14.2 +0.2 38 +14 +18 тепло 1022.9 955.2
16 20.02 С 2 30 км ясно +14.9 +1.1 39 +15 +17 тепло 1022.4 954.9
17 20.02 С 2 30 км ясно +14.5 +2.1 43 +14 +15 тепло 1022.4 954.8
18 20.02 СЗ 3 30 км ясно +11.3 +1.4 51 +10 +10 по сезону 1023.4 955.0 +14.9
19 20.02 С 2 30 км ясно +9.5 +0.6 54 +9 +9 тепло 1024.2 955.3
20 20.02 С 4 30 км ясно +8.9 +1.2 58 +6 +6 по сезону 1024.7 955.6
21 20.02 С 3 30 км ясно +7.6 +0.7 62 +5 +5 по сезону 1025.7 956.2
22 20.02 СЗ 1 30 км ясно +5.7 +0.3 68 +6 +6 тепло 1026.4 956.5
23 20.02 штиль 0 30 км ясно +4.6 +0.4 74 +4 +4 по сезону 1027.3 957.0
00 21.02 штиль 0 30 км ясно +4.1 0.0 75 +3 +3 по сезону 1027.2 956.8
01 21.02 ЮВ 1 30 км ясно +4.3 +0.2 75 +3 +3 тепло 1027.4 957.0
02 21.02 штиль 0 30 км ясно +2.3 -0.2 84 +1 +1 по сезону 1028.0 957.1
03 21.02 С 1 30 км ясно +1.8 0.0 88 0 0 по сезону 1027.8 956.8
04 21.02 СЗ 1 20 км ясно +1.3 -0.2 90 -1 -1 тепло 1028.0 956.8
05 21.02 С 2 30 км ясно +0.9 -1.1 86 -2 -2 по сезону 1028.1 956.8
06 21.02 С 2 30 км ясно 0.0 -1.3 91 -3 -3 прохладно 1028.1 956.7 0.0
07 21.02 СЗ 2 30 км ясно +0.1 -1.4 90 -4 -4 прохладно 1028.3 956.9
08 21.02 С 2 30 км ясно +1.1 -0.9 86 -2 -1 прохладно 1028.5 957.2
09 21.02 СЗ 2 20 км ясно +4.0 +0.5 78 +2 +5 прохладно 1027.9 957.4
10 21.02 СЗ 1 16 км ясно +6.8 +2.2 72 +6 +13 по сезону 1027.0 957.3
11 21.02 С 1 20 км ясно +10.2 +3.7 64 +10 +19 по сезону 1025.7 956.9
12 21.02 С 2 30 км ясно +12.6 +2.3 49 +12 +22 тепло 1024.5 956.3
13 21.02 С 2 28 км ясно +14.4 0.0 37 +14 +23 тепло 1022.7 955.1
14 21.02 СВ 2 30 км н/о +15.8 -2.2 29 +16 +16 тепло 1021.2 953.9
15 21.02 СВ 3 30 км ясно +16.7 -3.6 25 +17 +21 тепло 1020.2 953.1
16 21.02 С 3 30 км ясно +17.1 -1.7 28 +17 +19 тепло 1019.5 952.6
17 21.02 С 2 30 км ясно +16.7 -1.8 28 +17 +17 тепло 1019.5 952.5
18 21.02 С 1 30 км ясно +13.3 -1.1 37 +14 +14 тепло 1020.7 952.9 +17.4
19 21.02 С 2 30 км ясно +9.4 -2.0 45 +8 +8 тепло 1021.9 953.1
20 21.02 СЗ 2 30 км ясно +8.4 -1.0 52 +7 +7 тепло 1022.6 953.5
21 21.02 СЗ 3 30 км 1/0
[Ci sp]
+6.3 -0.3 63 +4 +4 по сезону 1023.8 954.2
22 21.02 СЗ 3 30 км 1/0
[Ci sp]
+5.7 -0.3 65 +3 +3 тепло 1024.5 954.7
23 21.02 С 2 30 км 3/0
[Ci sp]
+5.3 +0.3 70 +3 +3 по сезону 1025.1 955.2
00 22.02 СЗ 2 30 км 3/0
[Ci sp]
+4.6 -0.3 70 +2 +2 по сезону 1025.2 955.1
01 22.02 С 2 30 км 5/0
[Ci sp]
+3.4 -0.1 78 +1 +1 тепло 1025.5 955.0
02 22.02 С 2 30 км 5/0
[Ac As Ci sp]
+3.5 -0.6 75 +1 +1 по сезону 1025.4 955.0
03 22.02 СЗ 2 30 км 6/0
[Ac As Ci sp]
+3.1 -0.6 77 +1 +1 по сезону 1025.1 954.6
04 22.02 СЗ 1 30 км 3/0
[Ci sp]
+2.2 -0.9 80 +1 +1 тепло 1024.9 954.2
05 22.02 С 2 30 км 1/0
[Ci sp]
+1.9 -1.1 80 -1 -1 по сезону 1024.9 954.1
06 22.02 С 2 30 км 1/0
[Ci sp]
+1.4 -1.1 83 -1 -1 по сезону 1024.9 954.0 +1.4
07 22.02 С 1 30 км 3/0
[Ci sp]
+1.4 -1.4 82 +1 +1 по сезону 1025.2 954.2
08 22.02 штиль 0 30 км 5/0
[Cs]
+2.1 -0.3 84 +1 +2 по сезону 1025.3 954.5
09 22.02 С 1 22 км 6/0
[Ac As Cs]
+4.6 +1.1 78 +5 +8 по сезону 1024.7 954.6
10 22.02 С 1 22 км 5/0
[Ac As Ci sp]
+7.7 +1.7 66 +8 +15 по сезону 1023.5 954.2
11 22.02 З 1 20 км 3/0
[Ci sp]
+12.2 +4.2 58 +13 +23 тепло 1022.0 953.9
12 22.02 С 1 30 км 6/0
[Ac trans Ci sp]
+15.1 +3.9 47 +16 +25 тепло 1020.6 953.2
13 22.02 СВ 3 30 км 8/0
[Ac trans Ci sp]
+17.5 +0.5 32 +18 +23 тепло 1018.9 952.2
14 22.02 С 3 30 км 9/0
[As trans Ci sp]
+18.7 +0.4 29 +19 +22 тепло 1017.5 951.1
15 22.02 СВ 3 12 км 5/0
[As trans Ci sp]
+19.5 +1.2 29 +20 +23 тепло 1016.5 950.4
16 22.02 С 3 12 км 3/0
[Ci sp]
+19.5 +2.0 31 +20 +22 тепло 1015.9 949.8
17 22.02 С 2 10 км ясно +18.3 +3.6 38 +19 +20 тепло 1015.7 949.4
18 22.02 СЗ 1 10 км ясно +15.2 +3.2 45 +17 +17 тепло 1016.8 949.7 +19.7
19 22.02 штиль 0 10 км 3/0
[Ci sp]
+13.4 +3.2 50 +13 +13 тепло 1017.9 950.4
20 22.02 С 1 10 км 6/0
[Cs]
+12.5 +3.4 54 +14 +14 тепло 1018.2 950.5
21 22.02 СЗ 1 9000 м пыль 4/0
[Cs]
+11.2 +3.6 59 +12 +12 тепло 1019.0 950.9
22 22.02 С 3 7000 м пыль 5/1 2000 м
[Sc Cs]
+10.8 +4.3 64 +9 +9 тепло 1019.1 950.9
23 22.02 СЗ 5 7000 м пыль 5/1
[Sc Cs]
+10.2 +4.6 68 +8 +8 тепло 1019.1 950.8
00 23.02 С 2 15 км ясно +8.9 +4.3 73 +7 +7 тепло 1019.4 950.7
01 23.02 СЗ 3 15 км ясно +9.0 +4.2 72 +7 +7 тепло 1018.9 950.3
02 23.02 С 2 7000 м дымка н/о +8.0 +3.7 74 +7 +7 тепло 1019.0 950.1
03 23.02 С 2 7000 м дымка н/о +7.5 +3.6 76 +6 +6 тепло 1018.5 949.5
04 23.02 С 2 7000 м пыль 6/0
[Cs]
+7.0 +3.6 79 +5 +5 тепло 1017.8 948.8
05 23.02 штиль 0 7000 м пыль 8/0
[Cs]
+6.5 +3.6 82 +6 +6 тепло 1018.1 948.9
06 23.02 С 3 7000 м пыль 8/0
[Cs]
+6.7 +3.8 82 +4 +4 по сезону 1017.5 948.4 +6.4
07 23.02 С 2 7000 м пыль 9/0
[Cs]
+6.8 +3.7 81 +5 +5 тепло 1017.9 948.8
08 23.02 С 1 7000 м пыль 9/0
[Cs]
+6.5 +4.0 84 +5 +7 по сезону 1018.1 948.9
09 23.02 С 2 8000 м дымка н/о +7.3 +4.7 84 +5 +5 по сезону 1017.9 948.9
10 23.02 С 2 7000 м пыль 9/0
[Cs]
+9.0 +5.1 77 +8 +13 по сезону 1017.6 949.1
11 23.02 штиль 0 7000 м пыль 9/0
[Cs]
+10.7 +6.0 73 +10 +19 по сезону 1017.3 949.2
12 23.02 СЗ 2 7000 м пыль 8/0
[Ac und Cs]
+12.5 +6.0 65 +12 +19 тепло 1016.3 948.7
13 23.02 С 4 7000 м пыль 9/0
[Ac und Cs]
+13.3 +6.0 61 +12 +16 тепло 1014.8 947.4
14 23.02 С 2 6000 м пыль 9/0
[Ac und Cs]
+14.1 +6.7 61 +14 +18 тепло 1014.0 946.9
15 23.02 СЗ 1 7000 м пыль 10/4 1500 м
[Sc Ac und Cs]
+14.2 +8.0 66 +15 +16 тепло 1013.2 946.2
16 23.02 С 2 8000 м дымка {дождь} н/о +14.4 +8.0 65 +14 +14 тепло 1012.8 945.9
17 23.02 штиль 0 8000 м пыль 9/0 1500 м
[Ac lent Cs]
+13.3 +8.6 73 +13 +13 тепло 1012.8 945.6
18 23.02 С 2 7000 м пыль 8/0
[Ac lent Cs]
+12.4 +7.7 73 +12 +12 тепло 1012.8 945.4 +14.6
19 23.02 штиль 0 7000 м пыль {ливн. осадки} 9/3
[Cu med, cong Ac lent Cs]
+11.8 +7.5 75 +11 +11 тепло 1013.4 945.8
20 23.02 штиль 0 7000 м слабый ливневой дождь 9/3 1500 м
[Cu med, cong Ac lent Cs]
+11.5 +8.8 83 +11 +11 тепло 1013.9 946.3
21 23.02 Ю 3 8000 м слабый дождь 10/8 1500 м
[Cu Sc Ac As]
+11.5 +9.4 87 +10 +10 тепло 1014.6 947.0 0.6
22 23.02 З 6 8000 м дымка {дождь} 10/5 1500 м
[Cu Sc Ac As]
+11.4 +9.4 88 +8 +8 тепло 1013.8 946.2
23 23.02 СЗ 4 8000 м дымка 10/3 2000 м
[Sc Ac As]
+10.9 +9.3 90 +8 +8 тепло 1013.9 946.2
00 24.02 С 2 8000 м дымка 10/3 2000 м
[Sc Ac As]
+10.3 +8.4 88 +9 +9 тепло 1013.8 945.9 0.2
01 24.02 ЮВ 2 6000 м дымка 9/0
[Ac As Cs]
+9.2 +8.2 93 +7 +7 тепло 1013.9 945.8
02 24.02 штиль 0 н/о 10/3
[Sc Ac As Cs]
+8.2 +7.1 93 +7 +7 тепло 1014.3 945.9
03 24.02 штиль 0 4000 м дымка 9/3 1500 м
[Sc Ac As Cs]
+8.3 +7.9 97 +7 +7 тепло 1014.0 945.6
04 24.02 С 3 8000 м дымка н/о +7.8 +7.3 97 +5 +5 тепло 1013.8 945.3
05 24.02 штиль 0 9000 м дымка 9/3
[Sc Ac As Cs]
+8.1 +7.2 94 +7 +7 тепло 1013.9 945.5
06 24.02 ЮВ 1 9000 м дымка 9/3 2000 м
[Sc Ac As Cs]
+7.4 +6.7 95 +6 +6 тепло 1013.7 945.1 +7.4
07 24.02 С 1 8000 м 9/3 2000 м
[Sc Ac As Cs]
+6.7 +6.4 98 +5 +5 тепло 1014.6 945.8
08 24.02 С 2 8000 м дымка 9/3 2000 м
[Sc Ac As Cs]
+7.4 +7.0 97 +6 +6 по сезону 1015.2 946.5
09 24.02 С 2 8000 м дымка 9/1 2000 м
[Sc Ac As Cs]
+8.4 +7.4 93 +6 +8 по сезону 1015.9 947.4
10 24.02 С 2 9000 м 9/0
[Ac As Cs]
+10.7 +6.1 73 +9 +13 по сезону 1016.2 948.2
11 24.02 СВ 3 30 км 10/0
[Ac As Cs]
+12.2 +6.3 67 +11 +16 тепло 1015.8 948.2
12 24.02 С 3 13 км 6/0
[Ac As Cs]
+14.2 +6.2 59 +14 +20 тепло 1014.7 947.6
13 24.02 С 2 10 км 6/0
[Ac As Cs]
+14.9 +6.7 58 +15 +21 тепло 1014.0 947.1
14 24.02 СЗ 3 15 км 6/0
[Ac As Cs]
+15.7 +6.6 55 +15 +20 тепло 1013.5 946.8
15 24.02 СЗ 1 15 км 6/0
[Ac trans Cs]
+17.0 +6.5 50 +18 +23 тепло 1012.6 946.3
16 24.02 штиль 0 11 км 8/3 1000 м
[Cu hum Ac As Cs]
+16.3 +7.8 57 +16 +18 тепло 1012.6 946.1
17 24.02 ЮВ 1 10 км 6/3 1000 м
[Cu hum Ac As Cs]
+15.7 +8.2 61 +16 +17 тепло 1012.9 946.3
18 24.02 С 4 30 км 6/3 1000 м
[Cu hum Ac As Cs]
+13.5 +1.4 44 +12 +12 тепло 1014.6 947.2 +17.2
19 24.02 С 5 30 км 8/0
[Ac As Cs]
+12.0 +2.0 50 +10 +10 тепло 1015.8 948.1
20 24.02 С 4 30 км 8/0
[Ac As Cs]
+11.0 +1.3 51 +9 +9 тепло 1017.4 949.3
21 24.02 СВ 3 30 км ясно +9.8 -0.3 49 +8 +8 по сезону 1019.0 950.5
22 24.02 СВ 3 30 км 9/0
[Cs]
+8.9 -1.1 49 +7 +7 тепло 1019.8 951.0
23 24.02 С 2 800 м 8/0
[Cs]
+7.5 -1.0 55 +6 +6 тепло 1020.6 951.4
00 25.02 С 3 30 км ясно +5.9 -0.7 63 +3 +3 по сезону 1021.1 951.6
01 25.02 С 2 30 км ясно +4.5 -0.6 69 +2 +2 тепло 1021.3 951.4
02 25.02 С 2 30 км ясно +3.8 -0.4 74 +1 +1 по сезону 1021.2 951.2
03 25.02 С 3 30 км ясно +2.7 -0.3 81 -1 -1 прохладно 1021.2 950.9
04 25.02 СЗ 2 30 км ясно +1.6 -0.8 84 -2 -2 по сезону 1021.5 950.9
05 25.02 С 1 30 км ясно +0.9 -0.9 88 -1 -1 по сезону 1022.1 951.2
06 25.02 С 1 30 км ясно +0.1 -1.2 91 -2 -2 по сезону 1022.8 951.7 +0.1
07 25.02 С 2 30 км 1/0
[Ci fib]
-0.3 -1.2 94 -4 -3 прохладно 1023.0 951.8
08 25.02 С 2 30 км 1/0
[Ci fib]
+2.1 +0.5 89 -1 -0 прохладно 1023.1 952.5
09 25.02 штиль 0 30 км 1/0
[Ci fib]
+5.3 +1.4 76 +5 +9 по сезону 1022.5 952.8
10 25.02 ЮЗ 1 30 км 1/0
[Ci fib]
+7.7 +1.4 64 +7 +14 по сезону 1021.9 952.7
11 25.02 ЮВ 2 30 км 1/0
[Ci fib]
+10.5 +1.6 54 +9 +18 по сезону 1020.7 952.3
12 25.02 Ю 3 30 км 1/0
[Ci fib]
+13.0 +2.5 49 +12 +21 тепло 1019.5 951.8
13 25.02 Ю 2 30 км 1/0
[Ci fib]
+14.9 +1.5 40 +15 +24 тепло 1018.3 951.0
14 25.02 Ю 3 30 км ясно +16.5 +2.7 40 +16 +23 тепло 1017.1 950.3
15 25.02 ЮЗ 4 30 км ясно +17.0 +0.3 32 +17 +20 тепло 1016.7 950.0
16 25.02 ЮЗ 3 30 км ясно +17.4 +1.9 35 +17 +19 тепло 1016.6 950.0
17 25.02 ЮЗ 3 30 км ясно +17.2 +3.3 39 +17 +18 тепло 1016.8 950.2
18 25.02 Ю 2 30 км 1/0
[Ci sp]
+15.2 +3.8 46 +15 +15 тепло 1017.6 950.5 +17.6
19 25.02 Ю 3 30 км ясно +13.5 +4.8 56 +13 +13 тепло 1018.5 950.9
20 25.02 ЮВ 3 30 км ясно +11.7 +5.3 65 +10 +10 тепло 1019.4 951.4
21 25.02 Ю 3 30 км ясно +10.3 +5.1 70 +9 +9 тепло 1020.0 951.6
22 25.02 С 1 18 км ясно +7.7 +4.4 80 +7 +7 тепло 1021.1 952.0
23 25.02 СЗ 2 18 км ясно +6.1 +3.1 81 +4 +4 по сезону 1022.0 952.5
00 26.02 С 1 17 км ясно +5.2 +2.8 84 +4 +4 по сезону 1022.4 952.7
01 26.02 С 2 16 км ясно +4.5 +2.8 89 +2 +2 тепло 1022.7 952.8
02 26.02 СЗ 3 17 км ясно +4.1 +2.4 89 +1 +1 по сезону 1022.6 952.6
03 26.02 СЗ 1 22 км ясно +3.3 +1.9 91 +2 +2 по сезону 1023.0 952.7
04 26.02 С 2 20 км ясно +2.5 +1.4 92 -1 -1 тепло 1023.2 952.7
05 26.02 С 2 20 км ясно +2.1 +0.9 92 -1 -1 по сезону 1023.4 952.8
06 26.02 С 1 30 км ясно +1.7 +0.6 92 -0 -0 по сезону 1023.8 953.0 +1.6
07 26.02 С 2 25 км 8/4 200 м
[St Ac As Ci sp]
+2.1 +1.0 92 -1 -1 по сезону 1024.1 953.4
08 26.02 СЗ 2 30 км 9/9 200 м
[St Ac As Cs]
+3.8 +1.6 86 +1 +1 по сезону 1024.1 953.9
09 26.02 штиль 0 30 км 9/9 200 м
[St Ac As Cs]
+5.1 +2.9 86 +4 +5 по сезону 1024.2 954.3
10 26.02 штиль 0 9000 м 9/9 200 м
[St Ac As Cs]
+6.7 +4.4 85 +6 +7 по сезону 1023.9 954.4
11 26.02 Ю 1 7000 м дымка 9/9 200 м
[St Ac As Cs]
+8.0 +6.3 89 +7 +8 по сезону 1023.8 954.6
12 26.02 ЮЗ 2 8000 м дымка 10/9 300 м
[St Ac As Cs]
+8.9 +6.1 83 +8 +8 по сезону 1023.2 954.3
13 26.02 Ю 2 8000 м дымка 9/9 300 м
[St Ac As Cs]
+10.5 +8.0 84 +9 +10 по сезону 1021.7 953.3
14 26.02 ЮВ 2 8000 м дымка 3/3 600 м
[St]
+12.6 +7.3 70 +12 +18 тепло 1020.0 952.2
15 26.02 Ю 3 16 км 3/0
[Ac cuf]
+14.6 +7.9 64 +14 +17 тепло 1018.7 951.4
16 26.02 ЮЗ 4 21 км ясно +14.8 +7.3 61 +14 +15 тепло 1018.3 951.1
17 26.02 ЮЗ 5 23 км ясно +13.8 +7.0 64 +12 +13 тепло 1018.6 951.1
18 26.02 Ю 4 20 км 3/0
[Ci sp]
+12.0 +6.5 69 +10 +10 по сезону 1019.2 951.3 +14.9
19 26.02 Ю 3 20 км 1/0
[Ci sp]
+10.4 +6.3 76 +8 +8 тепло 1020.0 951.7
20 26.02 Ю 4 20 км ясно +9.6 +6.4 80 +7 +7 по сезону 1020.2 951.7
21 26.02 Ю 3 12 км 4/3 300 м
[Sc Ci sp]
+8.7 +6.2 84 +6 +6 по сезону 1020.6 951.8
22 26.02 Ю 3 12 км 4/3 300 м
[Sc Ci sp]
+8.8 +5.9 82 +7 +7 тепло 1020.4 951.7
23 26.02 Ю 3 10 км 4/3 300 м
[Sc Ci sp]
+8.2 +5.9 85 +5 +5 тепло 1020.5 951.6
00 27.02 Ю 2 8000 м дымка 5/5 300 м
[Sc]
+6.8 +5.1 89 +4 +4 по сезону 1020.7 951.4
01 27.02 ЮВ 3 8000 м дымка 8/8 300 м
[Sc]
+7.3 +6.0 91 +4 +4 тепло 1020.3 951.2
02 27.02 Ю 3 7000 м дымка 9/9 200 м
[Sc]
+7.1 +6.0 93 +4 +4 тепло 1019.9 950.8
03 27.02 Ю 4 9000 м дымка 10/10 200 м
[Sc]
+7.7 +6.0 89 +4 +4 по сезону 1019.0 950.1
04 27.02 Ю 3 8000 м дымка 9/9 300 м
[Sc]
+7.7 +6.4 91 +5 +5 тепло 1018.8 949.9
05 27.02 ЮЗ 4 12 км 10/10 300 м
[Sc]
+7.9 +5.6 85 +5 +5 тепло 1018.8 949.9

 

Местоположение метеостанции Madrid (Испания): широта 40.45 долгота -3.55 высота над уровнем моря 582 м.

В архиве по умолчанию представлена погода в Madrid за последнюю неделю. Архивные данные за месяц целиком и за предыдущие месяцы, начиная с января 2011 года, Вы можете получить, выбрав интересующий диапазон дат из раскрывающегося списка и нажав кнопку "Ввод!".

Внимание! Время в таблицах - всемирное. Для получения местного времени необходимо прибавить поправку, которая в Madrid равна 1 ч.

Смотрите также архив погоды в соседних городах и на ближайших метеорологических станциях:

Погода в Madrid Airport (Испания) (22 км)
Погода в Guadalajara (Испания) (39 км)
Погода в Navacerrada (Испания) (54 км)
Погода в Segovia (Испания) (74 км)
Погода в Toledo (Испания) (76 км)
Погода в Avila (Испания) (100 км)
Погода в Cuenca (Испания) (128 км)
Погода в Molina de Aragon (Испания) (148 км)
Погода в Ciudad Real (Испания) (167 км)
Погода в Valladolid (Испания) (168 км)

Пояснения к столбцам:

Ветер - указаны скорость ветра в м/с - средняя за 10 мин, порывы в срок и между сроками (в фигурных скобках) и направление, откуда дует ветер: С - северный, СВ - северо-восточный, В - восточный, ЮВ - юго-восточный, Ю - южный, ЮЗ - юго-западный, З - западный, СЗ - северо-западный.
Видимость - горизонтальная дальность видимости в метрах или километрах. При видимости от 1 до 10 км при отсутствии осадков обычно наблюдается дымка, при ухудшении видимости до 1 км и менее - туман. В сухую погоду видимость может ухудшаться дымом, пылью или мглою.
Явления - указаны атмосферные явления, наблюдавшиеся в срок или в последний час перед сроком; фигурными скобками обозначены явления, наблюдавшиеся между сроками (за 1-3 часа до срока); квадратными скобками обозначены град или гололедные отложения с указанием их диаметра в мм.
Облачность - указаны через наклонную черту общая и нижняя облачность в баллах и высота нижней границы облаков в метрах; квадратными скобками обозначены формы облаков: Ci - перистые, Cs - перисто-слоистые, Cc - перисто-кучевые, Ac - высококучевые, As - высокослоистые, Sc - слоисто-кучевые, Ns - слоисто-дождевые, Cu - кучевые, Cb - кучево-дождевые. Подробнее классификацию облаков см. в Атласе облаков (PDF).
T - Температура воздуха - температура, измеренная на высоте 2 м над землей.
Td - Температура точки росы - температура, при понижении до которой содержащийся в воздухе водяной пар достигнет насыщения.
f - Относительная влажность воздуха - влажноcть воздуха, измеренная на высоте 2 м над землей.
Te - Эффективная температура - температура, которую ощущает одетый по сезону человек в тени. Характеристика душности погоды. При расчете учитывается влияние влажности воздуха и скорости ветра на теплоощущения человека.
Tes - Эффективная температура на солнце - температура, которую ощущает человек, с поправкой на солнечный нагрев. Характеристика знойности погоды. Зависит от высоты солнца над горизонтом, облачности и скорости ветра. Ночью, в пасмурную погоду, а также при ветре 12 м/с и более поправка равна нулю.
P - Атмосферное давление - приведенное к уровню моря атмосферное давление.
Po - Атмосферное давление - измеренное на уровне метеостанции атмосферное давление.
Tmin - Минимальная температура - минимум температуры воздуха на высоте 2 м над землей.
Tmax - Максимальная температура - максимум температуры воздуха на высоте 2 м над землей.
R - Количество осадков - Количество выпавших осадков, мм. При наведении курсора мыши на число - период времени, за который выпало указанное количество осадков.
S - Снежный покров - Высота снежного покрова, см. При наведении курсора мыши на число - состояние снежного покрова и степень покрытия местности в баллах.